Time,TemperatureF,DewpointF,PressureIn,WindDirection,WindDirectionDegrees,WindSpeedMPH,WindSpeedGustMPH,Humidity,HourlyPrecipIn,Conditions,Clouds,dailyrainin,SoftwareType,DateUTC
2013-02-18 00:03:00,27.4,19.0,30.11,SE,136,5.0,-999.0,72,-99.99,,,0.00,weatherlink.com 1.10,2013-02-18 05:03:00,
2013-02-18 00:18:00,27.4,20.0,30.11,SE,133,6.0,-999.0,73,-99.99,,,0.00,weatherlink.com 1.10,2013-02-18 05:18:00,
2013-02-18 00:33:00,27.6,20.0,30.11,SE,145,6.0,-999.0,73,-99.99,,,0.00,weatherlink.com 1.10,2013-02-18 05:33:00,
2013-02-18 00:48:00,27.9,20.0,30.10,SE,146,6.0,-999.0,72,-99.99,,,0.00,weatherlink.com 1.10,2013-02-18 05:48:00,
2013-02-18 01:03:00,28.3,20.0,30.09,SE,132,11.0,-999.0,71,-99.99,,,0.00,weatherlink.com 1.10,2013-02-18 06:03:00,
2013-02-18 01:18:00,28.3,20.0,30.09,ESE,109,8.0,-999.0,71,-99.99,,,0.00,weatherlink.com 1.10,2013-02-18 06:18:00,
2013-02-18 01:33:00,28.5,20.0,30.08,SE,139,7.0,-999.0,71,-99.99,,,0.00,weatherlink.com 1.10,2013-02-18 06:33:00,
2013-02-18 01:48:00,28.5,20.0,30.07,SE,134,7.0,-999.0,71,-99.99,,,0.00,weatherlink.com 1.10,2013-02-18 06:48:00,
2013-02-18 02:03:00,28.6,20.0,30.07,SSE,155,7.0,-999.0,71,-99.99,,,0.00,weatherlink.com 1.10,2013-02-18 07:03:00,
2013-02-18 02:18:00,28.9,21.0,30.06,SE,141,6.0,-999.0,71,-99.99,,,0.00,weatherlink.com 1.10,2013-02-18 07:18:00,
2013-02-18 02:33:00,29.0,21.0,30.05,SE,140,7.0,-999.0,71,-99.99,,,0.00,weatherlink.com 1.10,2013-02-18 07:33:00,
2013-02-18 02:48:00,29.1,21.0,30.05,SE,138,7.0,-999.0,71,-99.99,,,0.00,weatherlink.com 1.10,2013-02-18 07:48:00,
2013-02-18 03:03:00,29.4,21.0,30.04,SE,130,9.0,-999.0,70,-99.99,,,0.00,weatherlink.com 1.10,2013-02-18 08:03:00,
2013-02-18 03:18:00,29.7,21.0,30.03,SE,144,8.0,-999.0,69,-99.99,,,0.00,weatherlink.com 1.10,2013-02-18 08:18:00,
2013-02-18 03:33:00,29.6,21.0,30.03,SE,139,10.0,-999.0,69,-99.99,,,0.00,weatherlink.com 1.10,2013-02-18 08:33:00,
2013-02-18 03:48:00,29.6,21.0,30.02,SE,140,5.0,-999.0,69,-99.99,,,0.00,weatherlink.com 1.10,2013-02-18 08:48:00,
2013-02-18 04:03:00,29.7,21.0,30.02,SE,134,6.0,-999.0,69,-99.99,,,0.00,weatherlink.com 1.10,2013-02-18 09:03:00,
2013-02-18 04:18:00,30.0,21.0,30.01,SSE,148,10.0,-999.0,68,-99.99,,,0.00,weatherlink.com 1.10,2013-02-18 09:18:00,
2013-02-18 04:33:00,30.0,21.0,30.00,SE,130,7.0,-999.0,69,-99.99,,,0.00,weatherlink.com 1.10,2013-02-18 09:33:00,
2013-02-18 04:48:00,30.2,21.0,29.99,ESE,119,7.0,-999.0,68,-99.99,,,0.00,weatherlink.com 1.10,2013-02-18 09:48:00,
2013-02-18 05:03:00,30.1,21.0,29.98,SE,140,10.0,-999.0,69,-99.99,,,0.00,weatherlink.com 1.10,2013-02-18 10:03:00,
2013-02-18 05:18:00,30.4,21.0,29.97,SE,128,11.0,-999.0,68,-99.99,,,0.00,weatherlink.com 1.10,2013-02-18 10:18:00,
2013-02-18 05:34:00,30.2,22.0,29.96,ESE,123,12.0,-999.0,70,-99.99,,,0.00,weatherlink.com 1.10,2013-02-18 10:34:00,
2013-02-18 05:49:00,30.5,21.0,29.96,South,177,8.0,-999.0,69,-99.99,,,0.00,weatherlink.com 1.10,2013-02-18 10:49:00,
2013-02-18 06:04:00,30.7,22.0,29.95,SSW,192,5.0,-999.0,69,-99.99,,,0.00,weatherlink.com 1.10,2013-02-18 11:04:00,
2013-02-18 06:19:00,31.0,22.0,29.96,South,177,9.0,-999.0,69,-99.99,,,0.00,weatherlink.com 1.10,2013-02-18 11:19:00,
2013-02-18 06:34:00,31.1,22.0,29.95,SSW,200,5.0,-999.0,69,-99.99,,,0.00,weatherlink.com 1.10,2013-02-18 11:34:00,
2013-02-18 06:49:00,31.0,22.0,29.94,South,184,5.0,-999.0,70,-99.99,,,0.00,weatherlink.com 1.10,2013-02-18 11:49:00,
2013-02-18 07:04:00,31.3,23.0,29.93,SSW,202,11.0,-999.0,70,-99.99,,,0.00,weatherlink.com 1.10,2013-02-18 12:04:00,
2013-02-18 07:19:00,31.6,23.0,29.93,South,178,11.0,-999.0,70,-99.99,,,0.00,weatherlink.com 1.10,2013-02-18 12:19:00,
2013-02-18 07:34:00,31.7,23.0,29.93,South,177,8.0,-999.0,71,-99.99,,,0.00,weatherlink.com 1.10,2013-02-18 12:34:00,
2013-02-18 07:49:00,32.2,24.0,29.92,SSE,156,9.0,-999.0,71,-99.99,,,0.00,weatherlink.com 1.10,2013-02-18 12:49:00,
2013-02-18 08:04:00,32.9,24.0,29.92,SSW,194,4.0,-999.0,71,-99.99,,,0.00,weatherlink.com 1.10,2013-02-18 13:04:00,
2013-02-18 08:19:00,33.2,25.0,29.91,SSW,197,8.0,-999.0,71,-99.99,,,0.00,weatherlink.com 1.10,2013-02-18 13:19:00,
2013-02-18 08:34:00,34.0,26.0,29.91,South,184,9.0,-999.0,72,-99.99,,,0.00,weatherlink.com 1.10,2013-02-18 13:34:00,
2013-02-18 08:49:00,35.6,27.0,29.91,South,186,10.0,-999.0,70,-99.99,,,0.00,weatherlink.com 1.10,2013-02-18 13:49:00,
2013-02-18 09:04:00,36.5,28.0,29.90,South,180,9.0,-999.0,70,-99.99,,,0.00,weatherlink.com 1.10,2013-02-18 14:04:00,
2013-02-18 09:19:00,37.6,28.0,29.90,South,183,10.0,-999.0,69,-99.99,,,0.00,weatherlink.com 1.10,2013-02-18 14:19:00,
2013-02-18 09:34:00,38.6,29.0,29.89,South,177,13.0,-999.0,69,-99.99,,,0.00,weatherlink.com 1.10,2013-02-18 14:34:00,
2013-02-18 09:49:00,40.0,31.0,29.88,South,191,10.0,-999.0,71,-99.99,,,0.00,weatherlink.com 1.10,2013-02-18 14:49:00,
2013-02-18 10:04:00,42.4,33.0,29.87,South,175,14.0,-999.0,70,-99.99,,,0.00,weatherlink.com 1.10,2013-02-18 15:04:00,
2013-02-18 10:19:00,43.0,34.0,29.87,South,191,13.0,-999.0,70,-99.99,,,0.00,weatherlink.com 1.10,2013-02-18 15:19:00,
2013-02-18 10:34:00,44.2,35.0,29.86,South,180,13.0,-999.0,70,-99.99,,,0.00,weatherlink.com 1.10,2013-02-18 15:34:00,
2013-02-18 10:49:00,45.4,36.0,29.86,South,189,19.0,-999.0,70,-99.99,,,0.00,weatherlink.com 1.10,2013-02-18 15:49:00,
2013-02-18 11:05:00,46.1,37.0,29.85,SSW,201,17.0,-999.0,70,-99.99,,,0.00,weatherlink.com 1.10,2013-02-18 16:05:00,
2013-02-18 11:20:00,46.6,38.0,29.85,South,187,23.0,-999.0,71,-99.99,,,0.00,weatherlink.com 1.10,2013-02-18 16:20:00,
2013-02-18 11:35:00,47.4,38.0,29.85,South,187,21.0,-999.0,71,-99.99,,,0.00,weatherlink.com 1.10,2013-02-18 16:35:00,
2013-02-18 11:50:00,48.3,39.0,29.84,SSW,192,24.0,-999.0,71,-99.99,,,0.00,weatherlink.com 1.10,2013-02-18 16:50:00,
2013-02-18 12:20:00,49.4,40.0,29.84,SSW,199,18.0,-999.0,71,-99.99,,,0.00,weatherlink.com 1.10,2013-02-18 17:20:00,
2013-02-18 12:35:00,49.5,40.0,29.83,SSW,193,21.0,-999.0,71,-99.99,,,0.00,weatherlink.com 1.10,2013-02-18 17:35:00,
2013-02-18 12:50:00,51.0,42.0,29.82,SSW,198,21.0,-999.0,71,-99.99,,,0.00,weatherlink.com 1.10,2013-02-18 17:50:00,
2013-02-18 13:05:00,52.4,44.0,29.80,SSW,192,24.0,-999.0,72,-99.99,,,0.00,weatherlink.com 1.10,2013-02-18 18:05:00,
2013-02-18 13:20:00,53.5,45.0,29.80,South,184,20.0,-999.0,72,-99.99,,,0.00,weatherlink.com 1.10,2013-02-18 18:20:00,
2013-02-18 13:35:00,53.5,45.0,29.78,SSW,194,27.0,-999.0,72,-99.99,,,0.00,weatherlink.com 1.10,2013-02-18 18:35:00,
2013-02-18 13:50:00,54.1,46.0,29.77,SSW,207,23.0,-999.0,73,-99.99,,,0.00,weatherlink.com 1.10,2013-02-18 18:50:00,
2013-02-18 14:05:00,53.5,45.0,29.77,SSW,203,27.0,-999.0,72,-99.99,,,0.00,weatherlink.com 1.10,2013-02-18 19:05:00,
2013-02-18 14:20:00,52.2,44.0,29.77,SSW,207,16.0,-999.0,74,-99.99,,,0.00,weatherlink.com 1.10,2013-02-18 19:20:00,
2013-02-18 14:35:00,51.7,44.0,29.75,South,185,15.0,-999.0,75,-99.99,,,0.00,weatherlink.com 1.10,2013-02-18 19:35:00,
2013-02-18 14:50:00,51.5,44.0,29.74,SSW,193,12.0,-999.0,75,-99.99,,,0.00,weatherlink.com 1.10,2013-02-18 19:50:00,
2013-02-18 15:05:00,51.3,44.0,29.73,South,179,10.0,-999.0,76,-99.99,,,0.00,weatherlink.com 1.10,2013-02-18 20:05:00,
2013-02-18 15:20:00,51.4,44.0,29.73,SSW,203,17.0,-999.0,77,-99.99,,,0.00,weatherlink.com 1.10,2013-02-18 20:20:00,
2013-02-18 15:35:00,51.3,45.0,29.72,SSW,194,11.0,-999.0,79,-99.99,,,0.00,weatherlink.com 1.10,2013-02-18 20:35:00,
2013-02-18 15:50:00,51.1,45.0,29.72,SSW,192,13.0,-999.0,80,-99.99,,,0.00,weatherlink.com 1.10,2013-02-18 20:50:00,
2013-02-18 16:05:00,50.3,45.0,29.71,South,189,9.0,-999.0,82,-99.99,,,0.01,weatherlink.com 1.10,2013-02-18 21:05:00,
2013-02-18 16:20:00,50.3,45.0,29.70,South,186,8.0,-999.0,82,-99.99,,,0.01,weatherlink.com 1.10,2013-02-18 21:20:00,
2013-02-18 16:35:00,50.7,45.0,29.70,SSW,196,14.0,-999.0,80,-99.99,,,0.01,weatherlink.com 1.10,2013-02-18 21:35:00,
2013-02-18 16:50:00,51.9,44.0,29.70,SSW,200,17.0,-999.0,75,-99.99,,,0.02,weatherlink.com 1.10,2013-02-18 21:50:00,
2013-02-18 17:06:00,50.9,44.0,29.70,SSW,200,18.0,-999.0,77,-99.99,,,0.03,weatherlink.com 1.10,2013-02-18 22:06:00,
2013-02-18 17:20:00,50.6,43.0,29.70,SSW,206,17.0,-999.0,75,-99.99,,,0.04,weatherlink.com 1.10,2013-02-18 22:20:00,
2013-02-18 17:35:00,48.7,42.0,29.70,SSW,205,23.0,-999.0,79,-99.99,,,0.06,weatherlink.com 1.10,2013-02-18 22:35:00,
2013-02-18 17:50:00,48.3,42.0,29.70,SSW,205,18.0,-999.0,80,-99.99,,,0.08,weatherlink.com 1.10,2013-02-18 22:50:00,
2013-02-18 18:05:00,48.0,42.0,29.69,South,189,14.0,-999.0,80,-99.99,,,0.08,weatherlink.com 1.10,2013-02-18 23:05:00,
2013-02-18 18:20:00,47.3,42.0,29.68,South,189,18.0,-999.0,82,-99.99,,,0.09,weatherlink.com 1.10,2013-02-18 23:20:00,
2013-02-18 18:35:00,47.0,42.0,29.67,South,183,17.0,-999.0,83,-99.99,,,0.09,weatherlink.com 1.10,2013-02-18 23:35:00,
2013-02-18 18:51:00,46.4,42.0,29.66,South,177,20.0,-999.0,85,-99.99,,,0.10,weatherlink.com 1.10,2013-02-18 23:51:00,
2013-02-18 19:06:00,46.2,42.0,29.65,South,191,22.0,-999.0,85,-99.99,,,0.10,weatherlink.com 1.10,2013-02-19 00:06:00,
2013-02-18 19:21:00,46.0,42.0,29.64,South,180,12.0,-999.0,87,-99.99,,,0.10,weatherlink.com 1.10,2013-02-19 00:21:00,
2013-02-18 19:36:00,45.8,43.0,29.62,South,175,14.0,-999.0,88,-99.99,,,0.10,weatherlink.com 1.10,2013-02-19 00:36:00,
2013-02-18 19:51:00,45.4,42.0,29.62,South,184,13.0,-999.0,89,-99.99,,,0.10,weatherlink.com 1.10,2013-02-19 00:51:00,
2013-02-18 20:06:00,45.3,43.0,29.62,South,178,13.0,-999.0,90,-99.99,,,0.11,weatherlink.com 1.10,2013-02-19 01:06:00,
2013-02-18 20:21:00,45.4,43.0,29.62,South,185,16.0,-999.0,91,-99.99,,,0.12,weatherlink.com 1.10,2013-02-19 01:21:00,
2013-02-18 20:36:00,45.4,43.0,29.60,South,174,12.0,-999.0,91,-99.99,,,0.13,weatherlink.com 1.10,2013-02-19 01:36:00,
2013-02-18 20:51:00,45.6,43.0,29.60,South,183,17.0,-999.0,91,-99.99,,,0.16,weatherlink.com 1.10,2013-02-19 01:51:00,
2013-02-18 21:06:00,45.4,44.0,29.58,South,178,16.0,-999.0,93,-99.99,,,0.19,weatherlink.com 1.10,2013-02-19 02:06:00,
2013-02-18 21:21:00,45.5,44.0,29.57,South,190,17.0,-999.0,93,-99.99,,,0.21,weatherlink.com 1.10,2013-02-19 02:21:00,
2013-02-18 21:36:00,45.6,44.0,29.57,South,171,12.0,-999.0,93,-99.99,,,0.22,weatherlink.com 1.10,2013-02-19 02:36:00,
2013-02-18 21:51:00,45.6,44.0,29.57,South,180,15.0,-999.0,93,-99.99,,,0.23,weatherlink.com 1.10,2013-02-19 02:51:00,
2013-02-18 22:06:00,45.4,44.0,29.56,South,178,14.0,-999.0,93,-99.99,,,0.25,weatherlink.com 1.10,2013-02-19 03:06:00,
2013-02-18 22:21:00,45.4,44.0,29.55,South,176,16.0,-999.0,93,-99.99,,,0.26,weatherlink.com 1.10,2013-02-19 03:21:00,
2013-02-18 22:36:00,45.6,44.0,29.54,South,182,18.0,-999.0,93,-99.99,,,0.28,weatherlink.com 1.10,2013-02-19 03:36:00,
2013-02-18 22:51:00,45.9,44.0,29.53,South,180,14.0,-999.0,93,-99.99,,,0.30,weatherlink.com 1.10,2013-02-19 03:51:00,
2013-02-18 23:06:00,46.3,44.0,29.52,South,173,19.0,-999.0,92,-99.99,,,0.31,weatherlink.com 1.10,2013-02-19 04:06:00,
2013-02-18 23:21:00,46.4,44.0,29.51,SSW,192,21.0,-999.0,92,-99.99,,,0.32,weatherlink.com 1.10,2013-02-19 04:21:00,
2013-02-18 23:36:00,46.6,44.0,29.51,South,186,19.0,-999.0,92,-99.99,,,0.33,weatherlink.com 1.10,2013-02-19 04:36:00,
2013-02-18 23:51:00,46.6,44.0,29.51,SSW,206,19.0,-999.0,92,-99.99,,,0.34,weatherlink.com 1.10,2013-02-19 04:51:00,